EW3084 Weather Reports


Display with metric or nautical units.
time (UTC)temp
F
wind
direction
speed
MPH
gust
MPH
rain 1hr
in
rain 24hr
in
rain mn
in
humidity
%
barometer
mb
20260906223816 52 296 1.0 4.0 0.00 0.02 0.00 89
20260906222703 53 288 3.0 6.0 0.00 0.02 0.00 88
20260906221803 53 288 3.0 6.0 0.00 0.02 0.00 88
20260906220903 53 281 3.0 6.0 0.00 0.02 0.00 89
20260906220004 53 278 3.0 9.0 0.00 0.02 0.00 89
20260906215403 53 280 3.0 6.0 0.00 0.02 0.02 89
20260906214503 53 279 3.0 6.0 0.00 0.02 0.02 89
20260906213603 53 284 2.0 6.0 0.00 0.02 0.02 88
20260906212703 53 290 3.0 6.0 0.00 0.02 0.02 88
20260906211803 53 293 3.0 5.0 0.00 0.02 0.02 88
20260906210903 54 292 2.0 4.0 0.00 0.02 0.02 88
20260906210003 54 289 2.0 4.0 0.00 0.02 0.02 88
20260906205403 54 288 1.0 4.0 0.00 0.02 0.02 87
20260906204503 54 290 2.0 5.0 0.00 0.02 0.02 87
20260906203603 54 293 3.0 6.0 0.00 0.02 0.02 86
20260906202703 54 291 3.0 6.0 0.00 0.02 0.02 86
20260906201803 55 289 3.0 6.0 0.00 0.02 0.02 86
20260906200903 55 284 3.0 10.0 0.00 0.02 0.02 87
20260906200003 55 278 4.0 8.0 0.00 0.02 0.02 88
20260906195403 55 274 4.0 10.0 0.00 0.02 0.02 88
20260906194503 55 269 4.0 8.0 0.00 0.02 0.02 89
20260906193603 55 272 3.0 9.0 0.00 0.02 0.02 89
20260906192703 55 280 2.0 9.0 0.00 0.02 0.02 89
20260906191803 56 268 2.0 5.0 0.00 0.02 0.02 88
20260906190903 56 295 1.0 3.0 0.00 0.02 0.02 87
20260906190003 56 299 1.0 4.0 0.00 0.02 0.02 86
20260906185403 56 298 1.0 4.0 0.00 0.02 0.02 86
20260906184503 56 281 0.0 3.0 0.00 0.02 0.02 85
20260906183603 56 284 1.0 3.0 0.00 0.02 0.02 84
20260906182703 57 286 1.0 4.0 0.00 0.02 0.02 84
20260906181803 57 287 1.0 2.0 0.00 0.02 0.02 83
20260906180903 57 288 1.0 3.0 0.00 0.02 0.02 82
20260906180003 57 285 1.0 3.0 0.00 0.02 0.02 81
20260906175403 58 280 1.0 3.0 0.00 0.02 0.02 80
20260906174503 58 275 1.0 5.0 0.00 0.02 0.02 78
20260906173603 59 283 2.0 5.0 0.00 0.02 0.02 77
20260906172703 59 280 2.0 6.0 0.00 0.02 0.02 75
20260906171803 60 279 2.0 6.0 0.00 0.02 0.02 74
20260906170903 60 265 2.0 4.0 0.00 0.02 0.02 72
20260906170003 61 272 2.0 7.0 0.00 0.02 0.02 70
20260906165403 61 270 3.0 10.0 0.00 0.02 0.02 70
20260906164503 61 277 3.0 10.0 0.00 0.02 0.02 70
20260906163603 61 272 4.0 10.0 0.00 0.02 0.02 70
20260906162703 61 265 4.0 10.0 0.00 0.02 0.02 71
20260906162016 62 270 4.0 9.0 0.00 0.02 0.02 70
20260906160903 62 267 4.0 10.0 0.00 0.02 0.02 69
20260906160003 63 277 6.0 15.0 0.00 0.02 0.02 68
20260906155403 64 273 6.0 15.0 0.00 0.02 0.02 66
20260906154503 65 267 5.0 15.0 0.00 0.02 0.02 64
20260906153603 65 273 6.0 12.0 0.00 0.02 0.02 64
20260906152916 66 275 5.0 12.0 0.00 0.02 0.02 64
20260906151803 65 274 6.0 14.0 0.00 0.02 0.02 64
20260906150903 65 276 6.0 11.0 0.00 0.02 0.02 61
20260906150003 65 277 5.0 11.0 0.00 0.02 0.02 57
20260906145403 65 269 4.0 14.0 0.00 0.02 0.02 58
20260906144503 65 275 4.0 13.0 0.00 0.02 0.02 57
20260906143603 65 293 2.0 5.0 0.00 0.02 0.02 60
20260906142703 65 292 3.0 6.0 0.00 0.02 0.02 59
20260906141803 65 281 3.0 9.0 0.00 0.02 0.02 57
20260906141119 65 285 4.0 10.0 0.00 0.02 0.02 56
20260906140003 66 273 6.0 11.0 0.00 0.03 0.02 53
20260906135403 67 292 5.0 11.0 0.00 0.03 0.02 53
20260906134717 67 294 4.0 10.0 0.00 0.03 0.02 54
20260906133816 66 285 5.0 14.0 0.00 0.03 0.02 56
20260906132703 66 285 4.0 10.0 0.00 0.03 0.02 56
20260906131803 66 291 3.0 7.0 0.00 0.03 0.02 57
20260906130903 66 292 4.0 10.0 0.00 0.04 0.02 56
20260906130003 66 289 4.0 12.0 0.00 0.06 0.02 53
20260906125403 66 287 5.0 12.0 0.00 0.07 0.02 52
20260906124503 66 284 4.0 9.0 0.00 0.07 0.02 54
20260906123603 64 289 2.0 9.0 0.00 0.07 0.02 56
20260906122703 64 315 2.0 5.0 0.00 0.07 0.02 56
20260906121803 65 344 3.0 9.0 0.00 0.07 0.02 54
20260906120903 66 299 4.0 12.0 0.00 0.09 0.02 51
20260906120003 66 285 5.0 11.0 0.00 0.09 0.02 53
20260906115403 66 304 5.0 11.0 0.00 0.09 0.02 55
20260906114503 66 302 4.0 11.0 0.00 0.09 0.02 53
20260906113603 66 301 5.0 11.0 0.00 0.09 0.02 53
20260906112703 66 312 3.0 11.0 0.00 0.09 0.02 55
20260906111803 65 294 5.0 13.0 0.00 0.09 0.02 58
20260906110903 65 292 6.0 11.0 0.00 0.09 0.02 54
20260906110003 64 284 4.0 11.0 0.00 0.09 0.02 57
20260906105403 64 278 3.0 11.0 0.00 0.09 0.02 59
20260906104503 64 293 3.0 9.0 0.00 0.09 0.02 64
20260906103603 63 297 3.0 7.0 0.00 0.09 0.02 66
20260906102703 63 289 3.0 9.0 0.00 0.09 0.02 69
20260906102018 62 295 3.0 9.0 0.00 0.09 0.02 68
20260906100903 62 287 4.0 7.0 0.00 0.09 0.02 72
20260906100003 61 288 4.0 7.0 0.00 0.09 0.02 71
20260906095403 60 275 4.0 7.0 0.00 0.09 0.02 73
20260906094503 60 269 4.0 9.0 0.00 0.09 0.02 76
20260906093603 60 281 3.0 8.0 0.00 0.09 0.02 77
20260906092703 61 284 3.0 8.0 0.00 0.09 0.02 76
20260906092017 60 285 2.0 6.0 0.00 0.09 0.02 77
20260906090903 60 274 1.0 5.0 0.00 0.09 0.02 75
20260906090003 59 290 2.0 7.0 0.00 0.09 0.02 77
20260906085403 59 303 2.0 5.0 0.00 0.09 0.02 80
20260906084503 58 287 3.0 6.0 0.00 0.09 0.02 84
20260906083819 57 263 4.0 7.0 0.00 0.09 0.02 86
20260906082703 56 277 2.0 4.0 0.00 0.09 0.02 86
20260906081803 56 291 2.0 7.0 0.00 0.09 0.02 92
20260906080903 56 299 1.0 4.0 0.00 0.09 0.02 96
20260906080003 55 294 1.0 6.0 0.00 0.09 0.02 100
20260906075403 54 285 3.0 5.0 0.00 0.09 0.02 100
20260906074503 54 270 3.0 6.0 0.00 0.09 0.02 100
20260906073603 53 285 2.0 7.0 0.00 0.09 0.02 100
20260906072703 52 289 2.0 5.0 0.00 0.09 0.02 100
20260906071803 52 273 2.0 5.0 0.01 0.09 0.02 100
20260906070903 51 294 1.0 4.0 0.01 0.09 0.02 100
20260906070003 50 281 2.0 5.0 0.01 0.09 0.02 100
20260906065403 50 283 2.0 5.0 0.01 0.09 0.02 100
20260906064718 49 288 2.0 4.0 0.01 0.09 0.02 100
20260906063603 49 283 1.0 3.0 0.01 0.09 0.02 100
20260906062703 48 291 2.0 6.0 0.01 0.09 0.02 100
20260906061803 48 286 1.0 4.0 0.00 0.09 0.01 100
20260906060903 47 288 1.0 4.0 0.00 0.09 0.01 100
20260906060003 46 285 1.0 3.0 0.00 0.09 0.01 100
20260906055403 46 275 1.0 3.0 0.00 0.09 0.01 100
20260906054503 46 272 0.0 3.0 0.00 0.09 0.01 100
20260906053603 45 300 0.0 2.0 0.00 0.09 0.01 100
20260906052703 45 296 0.0 2.0 0.00 0.09 0.01 100
20260906051803 45 294 0.0 2.0 0.00 0.09 0.01 100
20260906050903 45 301 0.0 3.0 0.00 0.09 0.01 100
20260906050003 45 282 1.0 4.0 0.00 0.09 0.01 100
20260906045403 45 286 1.0 4.0 0.00 0.09 0.01 100
20260906044503 45 305 0.0 3.0 0.00 0.09 0.01 100
20260906043603 45 304 2.0 5.0 0.00 0.09 0.01 100
20260906042703 45 292 2.0 5.0 0.00 0.09 0.01 100
20260906042016 45 289 1.0 4.0 0.00 0.09 0.01 100
20260906041119 45 297 0.0 3.0 0.00 0.09 0.01 100
20260906040218 45 297 0.0 3.0 0.00 0.09 0.01 100
20260906035403 45 287 1.0 4.0 0.00 0.09 0.01 100
20260906034717 45 295 1.0 4.0 0.00 0.09 0.01 100
20260906033603 45 288 1.0 4.0 0.00 0.09 0.01 100
20260906032703 46 301 2.0 7.0 0.00 0.09 0.01 100
20260906031803 45 300 1.0 4.0 0.00 0.09 0.01 100
20260906031119 46 294 0.0 3.0 0.01 0.09 0.01 100
20260906030003 46 298 0.0 3.0 0.01 0.09 0.01 100
20260906025617 46 294 0.0 3.0 0.01 0.09 0.01 100
20260906024503 46 282 1.0 6.0 0.01 0.09 0.01 100
20260906023603 46 295 0.0 1.0 0.01 0.09 0.01 100
20260906022703 46 308 0.0 3.0 0.01 0.09 0.01 100
20260906021803 46 311 0.0 5.0 0.01 0.09 0.01 100
20260906020903 47 309 1.0 5.0 0.00 0.08 0.00 100
20260906020003 47 294 1.0 5.0 0.00 0.08 0.00 100
20260906015617 47 293 1.0 5.0 0.00 0.08 0.00 100
20260906014503 47 297 0.0 3.0 0.00 0.08 0.00 100
20260906013603 47 296 1.0 5.0 0.00 0.08 0.00 100
20260906012703 47 306 1.0 5.0 0.00 0.08 0.00 100
20260906011803 47 303 1.0 5.0 0.00 0.08 0.00 100
20260906010903 47 297 2.0 5.0 0.00 0.08 0.00 100
20260906010003 47 299 0.0 5.0 0.00 0.08 0.00 100
20260906005403 47 298 0.0 4.0 0.00 0.08 0.00 100
20260906004503 47 288 0.0 2.0 0.00 0.08 0.00 100
20260906003603 47 290 0.0 2.0 0.00 0.08 0.00 100
20260906002703 47 0 0.0 0.0 0.00 0.08 0.00 100
20260906001803 47 289 0.0 2.0 0.00 0.08 0.00 100
20260906000903 47 0 0.0 0.0 0.00 0.08 0.00 100
20260906000003 47 287 0.0 1.0 0.00 0.08 0.00 100
20260905235616 47 0 0.0 0.0 0.00 0.08 0.00 100
20260905234503 48 282 0.0 4.0 0.00 0.08 0.00 100
20260905233603 48 294 0.0 4.0 0.00 0.08 0.00 100
20260905232703 48 307 0.0 3.0 0.00 0.08 0.00 100
20260905231803 48 313 0.0 4.0 0.00 0.08 0.00 100
20260905230903 48 318 0.0 3.0 0.00 0.08 0.00 100
20260905230216 48 345 0.0 2.0 0.00 0.08 0.00 100
20260905225403 48 326 0.0 1.0 0.00 0.08 0.00 100
20260905224503 48 326 0.0 2.0 0.00 0.08 0.00 100